Tracking 19153 objects as of 26-Apr-2018
HD Live streaming from Space Station
objects crossing your sky now

FENGYUN 1C DEB

Track FENGYUN 1C DEB now!
10-day predictions


NORAD ID: 31887
Int'l Code: 1999-025CKN
Perigee: 759.0 km
Apogee: 815.4 km
Inclination: 99.5 °
Period: 100.5 minutes
Semi major axis: 7158 km
RCS: 0.0075 m2 (small)
Launch date: May 10, 1999
Source: People's Republic of China (PRC)
Launch site: Taiyaun Space Center, China (TSC)

Note: This is SATELLITE DEBRIS
aabbcc
Your satellite tracking list
Your tracking list is empty




NASA's NSSDC Master Catalog

Two Line Element Set (TLE):
1 31887U 99025CKN 18116.11507661  .00000589  00000-0  22994-3 0  9997
2 31887  99.5368 179.3953 0039368 133.8838 256.9046 14.33497822565831
Source of the keplerian elements: AFSPC